Temperature
18 18 18 18 18 18 18 18 18 18 18 18 18 18 18 17 17 17 17 17 17 17 17 16 16 16 16 16 16 16 16 16 15 15 15 15 15 15
18 18 18 18 18 18 17 18 18 17 17 18 18 18 17 17 17 17 17 17 17 17 16 16 16 16 16 16 16 16 15 15 15 15 15 15 15 15
17 17 17 17 17 17 17 17 17 17 17 17 17 17 17 17 17 17 16 17 17 16 16 16 16 16 16 16 15 15 15 15 15 15 15 15 15 15
17 17 17 17 17 17 17 16 16 16 16 16 16 17 17 16 17 16 16 16 16 16 16 16 16 16 15 15 15 15 15 15 15 15 15 15 14 14
16 16 16 16 16 16 16 16 16 16 16 16 16 16 16 16 16 16 16 16 16 16 15 15 15 15 15 15 15 15 15 15 15 14 14 14 14 14
16 16 16 16 16 16 15 15 15 15 15 15 15 15 15 16 16 16 15 15 15 15 15 15 15 15 15 15 15 15 15 15 14 14 14 14 14 14
16 16 16 16 16 15 15 15 15 15 15 15 15 15 15 15 15 15 15 15 15 15 15 15 15 14 14 15 15 14 14 14 14 14 14 14 14 14
16 16 15 15 15 15 15 15 15 15 15 14 14 14 14 14 14 14 14 14 14 14 14 14 14 14 15 15 14 14 14 14 14 14 14 13 13 13
15 15 15 15 15 15 15 15 14 14 14 14 14 14 14 14 14 14 14 14 14 14 14 14 14 14 14 14 14 14 14 14 14 13 13 13 13 13
15 15 15 15 15 14 14 14 14 14 14 14 14 14 13 14 14 13 13 13 13 14 13 13 13 13 14 14 14 13 13 13 13 13 13 13 13 12
15 15 14 14 14 14 14 14 14 14 13 13 13 13 13 13 13 13 13 13 13 13 13 13 13 13 13 13 13 13 13 13 13 13 12 12 12 12
14 14 14 14 14 14 13 13 13 13 13 13 13 13 13 13 13 13 13 13 12 12 13 13 13 13 13 13 13 13 13 12 12 12 12 12 12 12
14 14 14 14 14 13 13 13 13 13 13 13 13 13 13 13 13 13 13 13 12 12 12 12 12 12 12 12 12 12 12 12 12 12 12 12 11 11
13 13 13 13 13 13 13 13 13 12 12 12 12 12 12 12 12 13 13 12 12 12 12 12 12 12 12 12 12 12 11 11 12 11 11 11 11 11
13 13 13 13 13 13 12 12 12 12 12 12 12 12 12 12 12 12 12 12 12 12 12 12 12 12 11 11 11 11 11 11 11 11 11 11 11 11
12 12 12 12 12 12 12 12 12 12 11 11 11 12 12 12 12 12 12 12 11 11 11 11 11 11 11 11 11 11 11 11 11 11 10 10 10 10
12 12 12 12 12 12 12 11 11 11 11 11 11 11 11 11 11 11 11 11 11 11 11 11 11 11 11 11 10 10 10 10 10 10 10 10 10 10
12 11 11 11 11 11 11 11 11 11 11 11 11 11 11 11 11 11 11 11 11 10 10 10 10 10 10 10 10 10 10 10 10 10 10 10 9 9
11 11 11 11 11 11 11 11 11 10 10 10 10 10 10 10 10 10 10 10 10 10 10 10 10 10 9 9 9 10 9 9 9 9 9 9 9 9
11 11 11 11 11 11 10 10 10 10 10 10 10 10 10 10 10 10 10 10 10 10 10 10 10 9 9 9 9 9 9 9 9 9 9 9 9 9
11 11 11 11 11 10 10 10 10 10 10 10 10 10 10 10 9 9 9 9 9 9 9 9 9 9 9 9 9 9 9 9 9 9 9 8 8 8
11 10 10 10 10 10 10 10 10 10 10 10 10 10 9 9 9 9 9 9 9 9 9 9 9 9 9 9 8 8 8 9 9 8 8 8 8 8
10 10 10 10 10 10 10 10 9 9 9 9 9 9 9 9 9 9 9 9 9 9 9 9 9 9 8 8 8 8 8 8 8 8 8 8 8 8
Wind_Speed
2 2 2 3 3 2 2 1 2 2 3 1 1 0 1 2 5 4 4 7 9 10 10 10 9 9 8 8 8 8 8 7 7 8 8 8 9 8
1 2 3 3 3 3 2 2 2 2 2 2 1 0 1 0 4 2 3 6 9 10 10 10 10 10 9 9 9 9 9 9 8 8 8 8 8 8
2 1 2 2 3 3 3 3 2 2 2 3 2 1 1 1 1 1 3 4 6 10 11 11 11 10 9 8 8 8 8 8 8 8 8 8 9 8
1 1 2 2 2 3 3 4 3 2 2 4 3 3 2 1 1 2 2 2 2 7 10 11 11 10 9 8 8 8 8 8 8 7 8 8 8 8
1 1 1 1 2 2 2 3 3 3 2 3 3 3 2 2 2 2 2 1 1 2 5 8 9 9 8 8 8 8 8 7 7 7 7 7 7 8
1 1 1 1 1 3 3 3 3 3 3 3 3 2 1 2 1 1 2 1 1 1 0 3 6 7 7 8 8 8 7 7 6 7 7 7 7 7
1 1 0 1 1 2 3 3 3 3 3 2 2 2 2 2 2 2 2 2 2 1 0 0 2 2 3 5 7 8 8 7 7 6 6 6 7 6
2 1 2 1 1 1 2 3 3 3 3 2 2 3 3 3 3 3 3 2 2 1 1 2 1 2 2 3 5 7 7 7 7 7 7 6 6 6
2 2 3 1 1 1 2 2 3 4 4 3 3 4 4 3 3 4 3 3 4 2 2 3 2 2 1 2 5 7 8 7 7 6 6 6 6 5
2 1 1 1 2 2 2 2 3 3 4 3 3 4 4 3 3 4 4 4 3 2 2 2 2 2 2 2 6 8 8 8 7 6 6 6 6 5
2 1 1 0 1 2 2 2 3 3 3 3 3 3 3 3 3 2 3 3 3 2 1 1 2 2 1 2 4 8 8 8 8 7 6 6 6 5
2 1 1 1 1 0 2 3 3 4 4 5 4 5 5 5 5 3 3 3 3 2 2 2 2 1 1 0 2 4 4 6 7 7 7 6 6 4
2 2 1 3 2 2 2 3 4 5 5 5 4 3 2 2 2 2 2 3 2 2 2 2 2 2 2 1 1 1 2 2 3 4 7 7 7 5
1 1 2 2 2 3 3 5 6 5 4 4 3 3 2 1 1 0 1 1 2 2 3 2 2 3 2 2 2 1 1 1 2 2 3 5 5 6
1 1 2 4 3 4 6 6 5 4 4 3 3 2 2 2 1 1 1 1 1 2 3 2 2 2 2 2 2 1 1 2 2 2 2 3 3 3
1 2 4 6 5 4 4 4 4 3 3 3 3 2 2 2 2 2 1 1 1 1 2 2 1 1 2 2 2 2 2 1 1 1 1 2 2 3
1 2 3 3 3 2 2 1 1 2 3 3 3 2 2 2 2 2 1 1 1 1 2 1 0 0 1 2 2 2 2 1 1 1 2 2 2 2
2 3 3 3 2 2 2 2 2 2 2 3 2 2 2 2 2 1 1 1 1 1 1 1 1 1 2 2 1 2 2 1 1 2 1 1 1 1
3 4 3 3 3 2 2 2 2 2 2 3 2 2 2 2 2 2 2 2 2 1 1 1 1 1 2 3 3 2 2 2 1 2 2 1 2 2
3 3 3 3 2 2 2 2 2 2 2 3 2 2 2 2 2 2 2 2 2 2 2 2 1 1 2 3 3 3 4 3 2 2 2 0 0 0
3 3 2 2 2 2 2 2 2 2 2 3 2 2 1 2 3 3 3 3 3 2 3 2 2 2 2 2 2 2 2 2 3 2 2 2 1 2
3 3 2 2 2 2 2 2 2 2 2 2 2 2 2 2 2 3 3 3 3 3 3 2 1 1 2 2 3 3 2 2 1 1 2 2 2 3
3 2 2 2 2 2 1 2 3 2 2 2 2 2 3 3 3 3 3 4 3 3 3 2 2 2 3 3 3 2 2 3 2 2 2 3 4 4
Wind_Direction
309 313 309 303 307 311 303 278 261 277 282 259 223 147 88 121 154 176 176 190 198 203 206 209 209 209 209 214 218 224 227 226 230 234 238 240 242 243
304 350 336 326 336 329 331 328 320 282 279 297 304 302 19 240 169 196 190 191 201 201 204 209 208 206 208 212 217 223 224 225 231 235 240 242 241 240
313 341 339 333 336 335 342 331 337 336 291 298 311 317 317 307 117 237 218 191 197 197 205 213 209 204 206 212 218 223 225 229 233 236 237 239 236 236
319 339 331 330 350 339 335 331 337 328 301 298 300 308 306 312 242 240 251 247 213 201 204 210 206 202 204 212 219 222 224 230 236 235 234 235 234 230
302 311 316 344 336 325 318 322 325 323 304 287 291 293 295 326 302 280 275 288 272 202 200 202 201 203 206 212 218 221 223 229 235 233 233 232 234 231
264 278 297 327 324 322 315 321 310 309 296 287 282 276 279 294 287 286 292 300 294 322 267 179 189 197 209 214 215 219 222 225 229 228 229 230 225 220
229 230 169 82 334 314 307 324 323 309 300 300 300 309 318 328 313 300 288 283 276 224 234 260 156 172 197 219 218 217 217 219 224 225 225 226 220 211
212 227 200 167 142 322 337 328 305 289 302 303 301 310 312 321 325 311 303 298 291 272 273 275 203 211 201 182 203 204 205 210 217 221 220 219 214 207
219 249 274 235 79 329 301 303 309 287 255 251 277 289 294 301 303 301 302 291 278 271 264 263 244 235 233 202 192 188 190 198 207 209 207 207 207 205
222 249 275 346 338 354 320 335 313 302 276 255 258 273 291 304 290 279 278 292 283 282 264 268 263 255 245 158 182 182 187 195 199 197 195 197 200 203
222 248 242 132 45 360 309 305 311 314 303 299 274 261 273 297 298 301 295 292 296 292 293 275 278 277 236 196 177 186 190 195 196 198 198 194 198 203
202 173 121 149 157 0 297 297 296 302 311 302 288 274 260 260 253 242 261 274 290 305 328 320 296 310 298 224 148 169 189 200 200 205 205 200 196 198
216 206 172 161 187 215 275 286 279 288 288 283 277 273 264 254 229 217 230 245 263 282 323 331 308 311 290 293 283 190 176 176 179 196 205 202 201 200
257 208 139 158 210 237 256 266 277 289 281 282 285 285 287 290 292 190 184 208 224 237 286 305 285 286 284 279 284 257 181 190 178 177 178 186 205 219
288 221 186 210 231 245 244 253 268 269 270 277 287 294 306 307 296 278 242 201 230 273 304 286 264 278 277 273 279 270 256 232 194 193 188 180 190 204
285 267 229 237 253 258 252 250 246 261 267 270 280 287 295 304 302 294 290 264 261 300 299 285 276 283 280 278 270 263 255 241 216 202 199 203 197 193
237 256 255 251 245 242 248 262 269 264 269 274 276 280 292 303 299 302 317 327 329 321 321 322 267 204 275 277 274 273 259 262 234 218 215 215 213 193
186 241 252 253 255 259 249 244 241 251 268 274 281 284 279 278 281 292 296 285 290 285 301 315 323 319 304 309 279 269 268 257 264 239 225 218 222 195
214 239 244 243 250 260 258 254 252 261 266 276 272 267 281 293 291 280 268 262 263 266 263 259 261 287 295 292 289 291 272 258 244 244 245 240 230 205
236 242 249 250 243 242 246 250 255 258 266 270 262 260 264 279 290 287 275 268 265 265 269 252 234 246 268 281 285 285 267 242 229 228 225 215 45 136
240 248 256 265 261 252 262 263 262 252 255 268 263 259 262 272 279 284 285 277 271 269 273 272 247 235 253 274 277 269 267 258 222 219 204 187 197 205
250 250 255 261 263 256 263 271 271 272 274 277 281 261 255 262 265 272 284 285 279 267 263 253 235 243 256 263 270 268 271 255 215 204 200 210 196 200
250 264 264 263 264 270 281 285 286 282 277 281 284 281 271 266 272 276 273 277 282 281 280 254 242 251 249 249 264 262 257 257 231 206 251 251 216 208
Height
1531 1531 1531 1531 1532 1532 1532 1532 1532 1530 1529 1529 1528 1528 1527 1526 1526 1526 1526 1526 1526 1525 1525 1525 1525 1525 1525 1525 1525 1525 1526 1526 1526 1527 1528 1528 1529 1529
1529 1529 1529 1529 1529 1529 1529 1529 1529 1529 1527 1527 1526 1526 1526 1525 1524 1523 1523 1523 1523 1523 1522 1522 1522 1522 1522 1522 1522 1522 1522 1522 1522 1523 1523 1524 1525 1525
1528 1527 1527 1527 1527 1526 1527 1527 1526 1526 1525 1524 1524 1524 1523 1522 1522 1521 1521 1521 1520 1520 1520 1519 1519 1519 1519 1519 1519 1519 1519 1519 1519 1519 1519 1520 1520 1521
1526 1525 1525 1525 1524 1524 1524 1524 1523 1523 1523 1522 1521 1521 1521 1520 1519 1519 1519 1519 1518 1517 1517 1516 1516 1516 1516 1516 1516 1515 1515 1515 1515 1515 1515 1515 1516 1517
1523 1523 1523 1523 1522 1522 1521 1521 1520 1520 1520 1519 1518 1519 1518 1518 1517 1517 1516 1515 1515 1514 1514 1513 1513 1513 1513 1513 1513 1512 1512 1511 1511 1511 1511 1511 1511 1512
1521 1521 1521 1521 1520 1519 1519 1518 1518 1517 1517 1516 1516 1516 1515 1515 1515 1514 1513 1513 1512 1512 1511 1511 1510 1510 1510 1510 1509 1509 1508 1508 1507 1507 1507 1507 1507 1508
1519 1519 1518 1518 1518 1517 1517 1516 1515 1514 1514 1514 1514 1513 1512 1512 1512 1511 1510 1509 1509 1509 1509 1508 1508 1507 1507 1506 1506 1505 1505 1504 1504 1504 1503 1503 1503 1504
1516 1516 1516 1515 1515 1514 1514 1513 1512 1511 1511 1511 1511 1510 1510 1509 1508 1508 1507 1506 1506 1507 1506 1505 1504 1504 1503 1503 1503 1502 1502 1501 1501 1501 1500 1500 1500 1501
1513 1513 1514 1513 1512 1512 1511 1510 1509 1508 1508 1508 1508 1507 1507 1506 1505 1505 1505 1504 1503 1503 1503 1502 1502 1501 1500 1500 1499 1499 1499 1498 1498 1498 1498 1498 1498 1498
1510 1510 1510 1510 1510 1509 1508 1507 1506 1506 1505 1505 1505 1504 1504 1503 1503 1502 1502 1501 1500 1500 1500 1499 1499 1498 1497 1497 1496 1496 1496 1496 1495 1495 1495 1495 1496 1496
1507 1507 1507 1507 1507 1506 1506 1504 1503 1503 1503 1502 1502 1501 1501 1500 1500 1499 1498 1497 1496 1496 1497 1497 1496 1495 1494 1494 1494 1493 1493 1493 1493 1492 1493 1493 1493 1494
1504 1504 1504 1504 1503 1503 1503 1502 1501 1500 1500 1499 1498 1498 1497 1497 1496 1496 1495 1495 1494 1494 1494 1494 1493 1493 1492 1492 1491 1491 1490 1490 1490 1490 1490 1490 1491 1491
1501 1501 1501 1501 1500 1500 1500 1499 1499 1498 1497 1496 1495 1495 1494 1494 1493 1493 1492 1492 1492 1491 1492 1491 1490 1490 1490 1489 1489 1489 1488 1488 1488 1487 1487 1488 1488 1489
1498 1498 1498 1498 1497 1497 1496 1496 1496 1495 1494 1494 1493 1492 1492 1492 1491 1491 1490 1490 1490 1489 1489 1488 1487 1487 1486 1486 1486 1486 1486 1486 1485 1485 1485 1485 1485 1486
1495 1495 1494 1494 1494 1493 1493 1493 1493 1492 1492 1491 1490 1490 1490 1489 1489 1488 1488 1487 1487 1486 1486 1485 1485 1484 1484 1483 1483 1483 1483 1483 1483 1483 1482 1482 1482 1482
1491 1491 1491 1491 1491 1490 1490 1490 1489 1489 1489 1489 1488 1488 1487 1487 1486 1486 1485 1485 1484 1483 1483 1482 1482 1482 1481 1480 1480 1480 1480 1480 1480 1480 1480 1479 1479 1480
1487 1487 1487 1487 1487 1487 1487 1487 1487 1487 1486 1486 1485 1485 1484 1484 1484 1483 1483 1482 1482 1481 1481 1480 1480 1479 1478 1478 1477 1477 1477 1477 1477 1477 1477 1476 1477 1477
1484 1484 1484 1484 1484 1484 1484 1484 1484 1484 1483 1483 1483 1482 1482 1481 1481 1481 1481 1480 1479 1479 1479 1478 1477 1476 1476 1475 1476 1475 1474 1474 1474 1473 1473 1473 1473 1473
1481 1481 1481 1481 1481 1482 1481 1481 1481 1481 1481 1480 1480 1480 1479 1479 1479 1478 1478 1477 1477 1476 1476 1476 1475 1474 1473 1472 1472 1473 1472 1471 1471 1470 1470 1470 1470 1470
1478 1478 1478 1478 1478 1478 1478 1478 1478 1478 1477 1477 1477 1477 1476 1476 1476 1476 1475 1475 1474 1473 1473 1473 1473 1472 1471 1471 1469 1468 1469 1468 1468 1467 1467 1467 1467 1467
1475 1475 1476 1476 1476 1476 1476 1476 1475 1475 1474 1474 1474 1473 1473 1473 1473 1473 1473 1472 1471 1471 1470 1470 1470 1469 1469 1468 1466 1465 1465 1466 1465 1464 1464 1464 1463 1464
1473 1473 1473 1473 1473 1473 1473 1472 1472 1472 1471 1471 1471 1471 1471 1470 1470 1470 1469 1469 1468 1468 1467 1467 1467 1466 1465 1464 1463 1462 1462 1462 1461 1461 1462 1462 1461 1461
1470 1470 1470 1470 1470 1470 1470 1470 1469 1469 1469 1468 1468 1468 1467 1467 1466 1466 1466 1465 1465 1465 1464 1463 1463 1462 1462 1461 1460 1459 1458 1458 1458 1458 1459 1459 1459 1460